DW6471 Weather Reports


Display with metric or nautical units.
time (UTC)temp
F
wind
direction
speed
MPH
gust
MPH
rain 1hr
in
rain 24hr
in
rain mn
in
humidity
%
barometer
mb
20260901034127 77 221 0.0 0.0 0.00 0.99 0.99 95 1017.0
20260901033626 77 221 0.0 0.0 0.00 0.99 0.99 95 1017.1
20260901033127 77 221 0.0 0.0 0.00 0.99 0.99 95 1017.2
20260901032624 77 221 0.0 0.0 0.00 0.99 0.99 95 1017.2
20260901032124 77 221 0.0 0.0 0.00 0.99 0.99 95 1017.2
20260901031625 77 221 0.0 0.0 0.00 0.99 0.99 95 1017.2
20260901031357 77 221 0.0 0.0 0.00 0.99 0.99 95 1017.2
20260901030625 77 221 0.0 0.0 0.00 0.99 0.99 95 1017.3
20260901030356 77 221 0.0 0.0 0.00 0.99 0.99 95 1017.2
20260901025626 77 221 0.0 0.0 0.00 0.99 0.99 95 1017.2
20260901025125 77 221 0.0 0.0 0.00 0.99 0.99 95 1017.2
20260901024624 77 221 0.0 0.0 0.00 0.99 0.99 95 1017.2
20260901024123 77 221 0.0 0.0 0.00 0.99 0.99 95 1017.2
20260901023620 77 221 0.0 0.0 0.00 0.99 0.99 95 1017.1
20260901023351 77 221 0.0 0.0 0.00 0.99 0.99 95 1017.0
20260901022620 77 221 0.0 0.0 0.00 0.99 0.99 95 1017.0
20260901022121 77 221 0.0 0.0 0.00 0.99 0.99 95 1016.9
20260901021853 77 221 0.0 0.0 0.00 0.99 0.99 95 1016.9
20260901021127 78 221 0.0 1.0 0.00 0.99 0.99 95 1016.8
20260901021121 78 221 0.0 0.0 0.00 0.99 0.99 95 1017.0
20260901020621 78 221 0.0 1.0 0.00 0.99 0.99 95 1016.9
20260901015621 78 221 0.0 0.0 0.00 0.99 0.99 95 1016.8
20260901015350 78 221 0.0 1.0 0.00 0.99 0.99 95 1016.8
20260901014619 78 221 0.0 1.0 0.00 0.99 0.99 95 1016.8
20260901014351 78 221 0.0 0.0 0.00 0.99 0.99 95 1016.7
20260901013617 78 221 0.0 0.0 0.00 0.99 0.99 95 1016.6
20260901013117 78 221 0.0 0.0 0.00 0.99 0.99 95 1016.4
20260901012615 78 221 0.0 0.0 0.00 0.99 0.99 95 1016.5
20260901012114 78 221 0.0 0.0 0.00 0.99 0.99 95 1016.5
20260901011615 78 221 0.0 0.0 0.00 0.99 0.99 95 1016.5
20260901011344 78 221 0.0 0.0 0.00 0.99 0.99 95 1016.4
20260901010610 78 221 0.0 0.0 0.00 0.99 0.99 95 1016.4
20260901010110 78 221 0.0 0.0 0.00 0.99 0.99 94 1016.5
20260901005842 78 221 0.0 0.0 0.00 0.99 0.99 94 1016.4
20260901005111 78 221 0.0 0.0 0.00 0.99 0.99 94 1016.4
20260901004608 79 221 0.0 0.0 0.00 0.99 0.99 94 1016.4
20260901004109 79 221 0.0 0.0 0.00 0.99 0.99 94 1016.4
20260901003607 79 221 0.0 0.0 0.00 0.99 0.99 94 1016.3
20260901003337 79 221 0.0 0.0 0.00 0.99 0.99 94 1016.3
20260901002606 79 221 0.0 0.0 0.00 0.99 0.99 94 1016.2
20260901002105 79 221 0.0 0.0 0.00 0.99 0.99 94 1016.1
20260901001605 80 221 0.0 0.0 0.00 0.99 0.99 93 1016.0
20260901001336 80 221 0.0 0.0 0.00 0.99 0.99 93 1016.0
20260901000834 80 221 0.0 0.0 0.00 0.99 0.99 93 1015.9
20260831235601 81 221 0.0 0.0 0.00 0.99 0.99 93 1016.0
20260831235101 81 221 0.0 0.0 0.00 0.99 0.99 92 1016.0
20260831234601 81 221 0.0 0.0 0.00 0.99 0.99 92 1015.9
20260831234059 81 221 0.0 0.0 0.00 0.99 0.99 92 1016.0
20260831233830 82 221 0.0 0.0 0.00 0.99 0.99 92 1015.9
20260831233057 82 221 0.0 0.0 0.00 0.99 0.99 91 1015.9
20260831232828 82 221 0.0 0.0 0.00 0.99 0.99 90 1016.0
20260831232057 83 221 0.0 1.0 0.00 0.99 0.99 89 1016.0
20260831231554 83 221 0.0 1.0 0.00 0.99 0.99 89 1016.0
20260831231055 83 221 0.0 0.0 0.00 0.99 0.99 90 1016.0
20260831230553 82 221 0.0 1.0 0.00 0.99 0.99 91 1016.1
20260831230052 82 221 0.0 1.0 0.00 0.99 0.99 90 1016.2
20260831225553 82 221 0.0 1.0 0.00 0.99 0.99 90 1016.2
20260831225050 82 221 0.0 1.0 0.00 0.99 0.99 89 1016.1
20260831224550 83 221 0.0 1.0 0.00 0.99 0.99 89 1016.1
20260831224049 82 221 0.0 1.0 0.00 0.99 0.99 89 1016.3
20260831223820 82 221 0.0 1.0 0.00 0.99 0.99 88 1016.2
20260831223049 83 221 0.0 1.0 0.00 0.99 0.99 90 1016.2
20260831222546 82 221 0.0 1.0 0.00 0.99 0.99 92 1016.2
20260831222047 82 221 0.0 1.0 0.00 0.99 0.99 92 1016.3
20260831221816 81 221 0.0 1.0 0.00 0.99 0.99 93 1016.3
20260831221045 81 221 0.0 1.0 0.00 0.99 0.99 93 1016.2
20260831220542 80 221 0.0 1.0 0.00 0.99 0.99 93 1016.2
20260831220043 80 221 0.0 1.0 0.00 0.99 0.99 94 1016.3
20260831215542 80 221 0.0 1.0 0.00 0.99 0.99 93 1016.3
20260831215042 80 221 0.0 1.0 0.00 0.99 0.99 93 1016.2
20260831214541 80 221 0.0 1.0 0.00 0.99 0.99 93 1016.2
20260831214041 80 221 0.0 1.0 0.00 0.99 0.99 93 1016.2
20260831213539 80 221 0.0 1.0 0.01 0.99 0.99 94 1016.3
20260831213039 80 221 0.0 1.0 0.01 0.99 0.99 93 1016.3
20260831212539 79 221 0.0 1.0 0.03 1.01 0.99 93 1016.5
20260831212036 79 221 0.0 1.0 0.07 1.06 0.99 93 1016.6
20260831211536 79 221 0.0 1.0 0.15 1.17 0.99 93 1016.7
20260831211035 79 221 0.0 1.0 0.48 1.37 0.99 93 1016.8
20260831210805 78 198 0.0 2.0 0.85 1.44 0.99 93 1016.9
20260831210035 78 198 1.0 8.0 0.98 1.44 0.99 93 1017.0
20260831205535 78 86 1.0 8.0 0.98 1.44 0.99 93 1017.1
20260831205035 78 228 0.0 1.0 0.98 1.44 0.99 92 1016.9
20260831204534 78 227 0.0 1.0 0.98 1.44 0.99 92 1016.8
20260831204305 78 228 0.0 1.0 0.98 1.44 0.99 92 1016.9
20260831203806 78 228 0.0 4.0 0.97 1.43 0.98 91 1017.1
20260831203035 78 228 1.0 4.0 0.97 1.43 0.98 90 1017.2
20260831202534 78 167 1.0 4.0 0.95 1.41 0.97 88 1017.1
20260831202035 79 201 2.0 4.0 0.91 1.37 0.92 87 1017.3
20260831201806 80 199 3.0 8.0 0.83 1.29 0.85 84 1017.4
20260831201035 82 215 4.0 10.0 0.50 0.96 0.56 80 1017.3
20260831200806 86 108 3.0 10.0 0.13 0.59 0.18 76 1017.4
20260831200306 88 157 1.0 4.0 0.00 0.46 0.01 72 1016.6
20260831195534 89 262 1.0 4.0 0.00 0.46 0.01 70 1016.5
20260831195035 89 242 0.0 2.0 0.00 0.46 0.01 69 1016.7
20260831194535 90 69 0.0 1.0 0.00 0.46 0.01 70 1016.7
20260831194034 90 69 1.0 3.0 0.00 0.46 0.01 68 1016.7
20260831193534 90 69 1.0 3.0 0.00 0.46 0.01 66 1016.8
20260831193035 91 97 1.0 4.0 0.00 0.46 0.01 62 1016.9
20260831192534 91 94 2.0 6.0 0.00 0.46 0.01 61 1016.9
20260831192034 91 89 2.0 6.0 0.00 0.46 0.01 63 1017.0
20260831191535 91 77 2.0 7.0 0.00 0.46 0.01 62 1017.0
20260831191035 91 115 2.0 7.0 0.00 0.46 0.01 62 1017.1
20260831190535 91 127 2.0 6.0 0.00 0.46 0.01 61 1017.1
20260831190035 91 72 2.0 6.0 0.00 0.47 0.01 62 1017.2
20260831185807 91 91 3.0 7.0 0.00 0.49 0.01 62 1017.2
20260831185035 91 58 3.0 7.0 0.00 0.51 0.01 61 1017.2
20260831184535 91 1 2.0 7.0 0.00 0.53 0.01 64 1017.3
20260831184035 91 84 2.0 5.0 0.00 0.55 0.01 63 1017.2
20260831183534 92 113 2.0 5.0 0.00 0.55 0.01 62 1017.2
20260831183035 92 118 1.0 5.0 0.00 0.56 0.01 61 1017.3
20260831182526 92 117 2.0 5.0 0.00 0.61 0.01 62 1017.3
20260831182027 91 88 2.0 6.0 0.00 0.61 0.01 61 1017.4
20260831181757 91 127 2.0 7.0 0.00 0.61 0.01 64 1017.5
20260831181027 91 63 2.0 7.0 0.00 0.62 0.01 62 1017.6
20260831180526 91 62 2.0 5.0 0.00 0.63 0.01 65 1017.6
20260831180027 90 98 3.0 6.0 0.00 0.63 0.01 62 1017.7
20260831175526 90 86 3.0 6.0 0.00 0.63 0.01 63 1017.7
20260831175027 90 103 3.0 7.0 0.00 0.63 0.01 64 1017.8
20260831174526 90 84 3.0 7.0 0.00 0.63 0.01 64 1017.7
20260831174026 90 106 3.0 7.0 0.00 0.63 0.01 64 1017.8
20260831173526 90 108 2.0 7.0 0.00 0.63 0.01 64 1017.8
20260831173027 90 69 2.0 5.0 0.00 0.63 0.01 67 1017.8
20260831172526 89 79 3.0 8.0 0.00 0.63 0.01 64 1017.8
20260831172257 89 73 4.0 9.0 0.00 0.63 0.01 64 1017.9
20260831171527 89 41 3.0 9.0 0.00 0.63 0.01 65 1017.9
20260831171026 89 76 3.0 7.0 0.00 0.63 0.01 65 1017.9
20260831170757 89 108 2.0 7.0 0.00 0.63 0.01 65 1017.9
20260831170026 89 125 3.0 7.0 0.00 0.63 0.01 65 1018.0
20260831165755 89 94 3.0 7.0 0.00 0.63 0.01 66 1018.1
20260831165022 89 186 3.0 6.0 0.00 0.63 0.01 66 1018.1
20260831164523 89 68 3.0 7.0 0.00 0.63 0.01 66 1018.2
20260831164252 89 129 3.0 7.0 0.00 0.63 0.01 67 1018.3
20260831163520 89 77 2.0 6.0 0.00 0.63 0.01 68 1018.3
20260831163018 89 48 2.0 6.0 0.00 0.63 0.01 67 1018.3
20260831162516 89 79 3.0 6.0 0.00 0.63 0.01 70 1018.3
20260831162017 88 99 2.0 6.0 0.00 0.63 0.01 69 1018.4
20260831161514 89 41 3.0 7.0 0.00 0.63 0.01 70 1018.4
20260831161013 88 101 3.0 7.0 0.00 0.63 0.01 71 1018.4
20260831160741 88 71 3.0 7.0 0.00 0.63 0.01 69 1018.4
20260831160010 88 79 3.0 7.0 0.00 0.63 0.01 71 1018.5
20260831155509 88 82 3.0 7.0 0.00 0.63 0.01 72 1018.6
20260831155008 87 78 4.0 7.0 0.00 0.63 0.01 75 1018.5
20260831154508 87 48 4.0 8.0 0.00 0.63 0.01 72 1018.5
20260831154008 87 60 3.0 8.0 0.00 0.63 0.01 72 1018.5
20260831153509 87 85 3.0 6.0 0.00 0.63 0.01 73 1018.5
20260831153008 87 49 2.0 6.0 0.00 0.63 0.01 75 1018.4
20260831152508 87 58 3.0 6.0 0.00 0.63 0.01 74 1018.4
20260831152009 87 60 3.0 7.0 0.00 0.63 0.01 77 1018.4
20260831151504 86 77 3.0 7.0 0.00 0.63 0.01 77 1018.4
20260831151002 86 47 3.0 7.0 0.00 0.63 0.01 77 1018.4
20260831150502 86 65 3.0 7.0 0.00 0.63 0.01 77 1018.5
20260831150237 86 52 3.0 7.0 0.00 0.63 0.01 77 1018.4
20260831145501 86 48 3.0 7.0 0.00 0.63 0.01 78 1018.3
20260831145000 85 103 3.0 7.0 0.00 0.63 0.01 79 1018.2
20260831144501 85 68 3.0 7.0 0.00 0.63 0.01 80 1018.2
20260831144000 85 85 3.0 7.0 0.00 0.63 0.01 79 1018.4
20260831143500 85 114 3.0 7.0 0.00 0.63 0.01 82 1018.4
20260831143001 85 98 3.0 7.0 0.00 0.63 0.01 81 1018.3
20260831142458 84 96 3.0 7.0 0.00 0.63 0.01 81 1018.3
20260831141957 84 44 2.0 5.0 0.00 0.63 0.01 81 1018.2
20260831141456 84 63 3.0 6.0 0.00 0.63 0.01 83 1018.2
20260831140957 83 84 3.0 7.0 0.00 0.63 0.01 82 1018.2
20260831140459 83 108 3.0 9.0 0.00 0.63 0.01 83 1018.1
20260831140455 83 87 3.0 9.0 0.00 0.63 0.01 83 1018.1
20260831135724 82 42 3.0 6.0 0.00 0.63 0.01 83 1018.1
20260831134952 82 101 3.0 6.0 0.00 0.63 0.01 84 1018.1
20260831134450 82 117 3.0 7.0 0.00 0.63 0.01 84 1018.1
20260831133949 81 54 3.0 7.0 0.00 0.63 0.01 85 1018.2
20260831133719 81 55 2.0 5.0 0.00 0.63 0.01 85 1018.2
20260831132948 81 79 2.0 5.0 0.00 0.63 0.01 86 1018.2
20260831132449 80 88 3.0 5.0 0.00 0.63 0.01 87 1018.2
20260831132445 80 69 2.0 5.0 0.00 0.63 0.01 86 1018.2
20260831131443 80 53 3.0 6.0 0.00 0.63 0.01 87 1018.2
20260831130942 79 76 3.0 6.0 0.00 0.63 0.01 87 1018.2
20260831130439 79 86 3.0 6.0 0.00 0.63 0.01 89 1018.1
20260831125938 78 51 3.0 6.0 0.00 0.63 0.01 89 1018.1
20260831125709 78 65 3.0 7.0 0.01 0.63 0.01 89 1018.0
20260831124939 78 51 3.0 7.0 0.01 0.63 0.01 89 1017.9
20260831124438 78 49 3.0 7.0 0.01 0.63 0.01 90 1017.8
20260831123938 77 80 3.0 7.0 0.01 0.63 0.01 90 1017.7
20260831123438 77 63 3.0 7.0 0.01 0.63 0.01 91 1017.6
20260831122938 77 36 3.0 7.0 0.01 0.63 0.01 91 1017.6
20260831122438 77 71 3.0 6.0 0.01 0.63 0.01 91 1017.7
20260831121939 76 96 2.0 5.0 0.01 0.63 0.01 92 1017.7
20260831121438 76 75 2.0 5.0 0.01 0.63 0.01 92 1017.6
20260831121209 76 76 2.0 5.0 0.01 0.63 0.01 93 1017.5
20260831120438 76 56 2.0 4.0 0.01 0.63 0.01 93 1017.3
20260831115939 75 60 2.0 4.0 0.01 0.63 0.01 93 1017.3
20260831115438 75 47 1.0 4.0 0.00 0.62 0.00 94 1017.3
20260831114938 75 75 1.0 2.0 0.00 0.62 0.00 94 1017.3
20260831114439 75 75 1.0 2.0 0.00 0.62 0.00 94 1017.1
20260831114209 75 75 1.0 2.0 0.00 0.62 0.00 94 1017.1
20260831113439 75 75 0.0 2.0 0.00 0.62 0.00 94 1017.0
20260831112938 75 75 0.0 2.0 0.00 0.62 0.00 94 1017.0
20260831112439 75 75 0.0 1.0 0.00 0.62 0.00 94 1017.1
20260831111938 75 75 0.0 2.0 0.00 0.62 0.00 94 1016.9
20260831111439 75 75 0.0 2.0 0.00 0.62 0.00 94 1016.8
20260831110938 75 63 1.0 2.0 0.00 0.62 0.00 94 1016.9
20260831110439 75 84 1.0 2.0 0.00 0.62 0.00 94 1016.9
20260831105942 75 63 1.0 1.0 0.00 0.62 0.00 94 1017.0
20260831105938 75 63 1.0 2.0 0.00 0.62 0.00 94 1016.9
20260831105209 75 63 1.0 2.0 0.00 0.62 0.00 94 1016.9
20260831104438 75 63 0.0 2.0 0.00 0.62 0.00 94 1016.8
20260831104208 75 67 0.0 1.0 0.00 0.62 0.00 94 1016.7
20260831103436 75 67 1.0 2.0 0.00 0.62 0.00 94 1016.5
20260831102936 75 66 1.0 3.0 0.00 0.62 0.00 94 1016.5
20260831102436 75 66 1.0 3.0 0.00 0.62 0.00 94 1016.5
20260831101936 75 68 1.0 2.0 0.00 0.62 0.00 94 1016.5
20260831101707 75 67 0.0 2.0 0.00 0.62 0.00 94 1016.5
20260831100936 75 67 0.0 2.0 0.00 0.62 0.00 94 1016.5
20260831100706 75 68 1.0 2.0 0.00 0.62 0.00 94 1016.5
20260831095935 75 67 1.0 2.0 0.00 0.62 0.00 94 1016.5
20260831095434 75 67 1.0 2.0 0.00 0.62 0.00 94 1016.5
20260831095203 75 68 0.0 1.0 0.00 0.62 0.00 94 1016.5
20260831094433 75 68 1.0 1.0 0.00 0.62 0.00 94 1016.5
20260831093932 75 68 1.0 2.0 0.00 0.62 0.00 94 1016.4
20260831093433 75 68 1.0 2.0 0.00 0.62 0.00 94 1016.4
20260831092932 75 133 0.0 2.0 0.00 0.62 0.00 94 1016.3
20260831092702 75 133 0.0 2.0 0.00 0.62 0.00 94 1016.2
20260831091933 75 80 0.0 1.0 0.00 0.62 0.00 94 1016.2
20260831091432 75 80 0.0 1.0 0.00 0.62 0.00 94 1016.1
20260831091204 75 80 0.0 1.0 0.00 0.62 0.00 94 1016.0
20260831090432 75 80 0.0 1.0 0.00 0.62 0.00 94 1016.0
20260831085931 75 80 1.0 2.0 0.00 0.62 0.00 94 1016.1
20260831085430 75 80 1.0 2.0 0.00 0.62 0.00 94 1016.1
20260831085202 75 65 1.0 2.0 0.00 0.62 0.00 94 1016.1
20260831084700 75 34 1.0 2.0 0.00 0.62 0.00 94 1016.1
20260831083928 75 35 1.0 2.0 0.00 0.63 0.00 94 1016.1
20260831083700 76 86 1.0 2.0 0.00 0.63 0.00 94 1016.0
20260831082928 76 77 1.0 3.0 0.00 0.63 0.00 94 1016.0
20260831082428 76 46 1.0 3.0 0.00 0.63 0.00 94 1016.0
20260831081929 76 75 1.0 2.0 0.00 0.63 0.00 94 1016.0
20260831081428 76 75 1.0 4.0 0.00 0.63 0.00 94 1016.0
20260831080926 76 75 2.0 4.0 0.00 0.63 0.00 94 1015.9
20260831080427 76 75 2.0 4.0 0.00 0.63 0.00 94 1016.0
20260831075926 76 80 1.0 2.0 0.00 0.63 0.00 94 1016.0
20260831075427 76 88 1.0 2.0 0.00 0.63 0.00 95 1016.1
20260831074926 76 87 1.0 2.0 0.00 0.63 0.00 95 1016.2
20260831074429 76 88 0.0 1.0 0.00 0.63 0.00 95 1016.2
20260831074425 76 87 0.0 2.0 0.00 0.63 0.00 95 1016.1
20260831073425 76 87 0.0 2.0 0.00 0.63 0.00 95 1016.2
20260831072924 76 87 0.0 2.0 0.00 0.63 0.00 95 1016.1
20260831072424 76 88 0.0 1.0 0.00 0.63 0.00 95 1016.0
20260831071922 76 87 0.0 1.0 0.00 0.63 0.00 95 1016.0
20260831071422 76 87 0.0 1.0 0.00 0.63 0.00 95 1016.1
20260831070921 75 87 0.0 0.0 0.00 0.63 0.00 95 1016.2
20260831070420 76 87 0.0 0.0 0.00 0.63 0.00 95 1016.2
20260831065920 75 87 0.0 0.0 0.00 0.63 0.00 94 1016.3
20260831065421 76 87 0.0 0.0 0.00 0.63 0.00 94 1016.3
20260831064920 76 87 0.0 0.0 0.00 0.63 0.00 94 1016.5
20260831064421 76 87 0.0 0.0 0.00 0.63 0.00 94 1016.5
20260831063920 76 87 0.0 0.0 0.00 0.63 0.00 94 1016.6
20260831063420 76 87 0.0 1.0 0.00 0.63 0.00 94 1016.6
20260831063149 76 87 0.0 1.0 0.00 0.63 0.00 94 1016.6
20260831063023 76 87 0.0 1.0 0.00 0.63 0.00 94 1016.6
20260831061918 76 87 0.0 1.0 0.00 0.63 0.00 94 1016.7
20260831061419 76 87 0.0 0.0 0.00 0.63 0.00 94 1016.8
20260831060919 76 87 0.0 1.0 0.00 0.63 0.00 94 1016.8
20260831060650 76 87 0.0 1.0 0.00 0.63 0.00 94 1016.8
20260831055918 76 88 0.0 2.0 0.00 0.63 0.00 94 1016.8
20260831055418 76 88 0.0 2.0 0.00 0.63 0.00 94 1016.9
20260831054919 76 87 0.0 2.0 0.00 0.63 0.00 94 1016.8
20260831054422 76 84 0.0 1.0 0.00 0.63 0.00 94 1016.8
20260831054418 76 87 0.0 2.0 0.00 0.63 0.00 95 1016.8
20260831053417 76 84 0.0 0.0 0.00 0.63 0.00 95 1016.8
20260831053146 76 84 0.0 1.0 0.00 0.63 0.00 95 1016.9
20260831052414 76 84 0.0 1.0 0.00 0.63 0.00 95 1016.9
20260831051914 76 84 0.0 1.0 0.00 0.63 0.00 95 1016.9
20260831051414 76 84 0.0 1.0 0.00 0.63 0.00 95 1016.9
20260831050915 76 84 0.0 1.0 0.00 0.63 0.00 95 1017.0
20260831050414 76 84 0.0 0.0 0.00 0.63 0.00 95 1017.0
20260831045913 76 84 0.0 0.0 0.00 0.63 0.63 95 1016.9
20260831045413 76 84 0.0 0.0 0.00 0.63 0.63 95 1017.0
20260831044911 76 84 0.0 0.0 0.00 0.63 0.63 95 1017.1
20260831044642 76 84 0.0 0.0 0.00 0.63 0.63 95 1017.0
20260831044142 76 84 0.0 0.0 0.00 0.63 0.63 95 1017.0
20260831043408 76 84 0.0 0.0 0.00 0.63 0.63 95 1017.2
20260831042909 76 84 0.0 0.0 0.00 0.63 0.63 95 1017.1
20260831042408 76 84 0.0 0.0 0.00 0.63 0.63 95 1017.1
20260831041908 76 84 0.0 0.0 0.00 0.63 0.63 95 1017.2
20260831041639 76 84 0.0 0.0 0.00 0.63 0.63 95 1017.3
20260831040908 76 84 0.0 0.0 0.00 0.63 0.63 95 1017.2
20260831040409 76 84 0.0 0.0 0.00 0.63 0.63 95 1017.2
20260831035909 76 84 0.0 0.0 0.00 0.63 0.63 95 1017.2
20260831035640 76 84 0.0 0.0 0.00 0.63 0.63 95 1017.2
20260831034909 76 84 0.0 0.0 0.00 0.63 0.63 95 1017.3
20260831034641 76 84 0.0 0.0 0.00 0.63 0.63 95 1017.4